ONEWEB-0062 (45163 NORAD) Tracking and Keplerian Element Data

This shows tracking and keplerian element data for the satellite.

Feedback or suggestion? Click here.




ElementValue
Catalog45163
NameONEWEB-0062
Epoch Orbit2448
Epoch Day197.25001157
Epoch Year2020
RAAN113.1843
Inclination87.4749
Eccentricity0.0020194
Argument of Perigee87.8496
Mean Anonmoly4.7774
Mean Motion14.75137723
Decay Rate0.00021145
L11 45163U 20008AJ 20197.25001157 .00021145 00000-0 31146-2 0 9999
L22 45163 87.4749 113.1843 0020194 87.8496 4.7774 14.75137723 24486

Live tracking and technical data element details for ONEWEB-0062 (NORAD 45163). ONEWEB-0062 can be tracked NOW for your location showing map with azimuth and elevation plus other details from your city location.

Track the satellite on the map from your city or location and see movement details for azimuth, elevation, latitude, longitude, range, height, and movement on the map or in text.







IsCatalogInMostPopularTable: catalog: 45163, numindb: 30
Update: records affected: 1



GetName: 45163 ONEWEB-0062

Hit Count: updated at: Thu, 16 Jul 2020 04:52:41 GMT